This is the latest recevied weather packets stored in our database for station/object KD7ECD. If no packets are shown the sender has not sent any weather packets the latest 1 day(s).
| Time | Temp. | Humidity | Pressure | Rain* | Wind** | Luminosity | Snow |
|---|---|---|---|---|---|---|---|
| 1778045580 | 12.22° C | 90% | 1020.2 hPa | 0 mm | 0.89 m/s, 226° | 0 W/m² | - |
| 1778044976 | 12.22° C | 89% | 1020.6 hPa | 0 mm | 0.45 m/s, 222° | 0 W/m² | - |
| 1778044375 | 12.78° C | 88% | 1020.3 hPa | 0 mm | 0.89 m/s, 220° | 0 W/m² | - |
| 1778043770 | 12.78° C | 87% | 1020 hPa | 0 mm | 1.79 m/s, 218° | 0 W/m² | - |
| 1778043169 | 13.33° C | 87% | 1019.9 hPa | 0 mm | 1.79 m/s, 243° | 0 W/m² | - |
| 1778042569 | 13.33° C | 86% | 1020 hPa | 0 mm | 1.79 m/s, 229° | 0 W/m² | - |
| 1778041964 | 13.33° C | 86% | 1020.2 hPa | 0 mm | 1.34 m/s, 245° | 0 W/m² | - |
| 1778041361 | 13.33° C | 86% | 1019.9 hPa | 0 mm | 1.34 m/s, 229° | 0 W/m² | - |
| 1778040761 | 13.33° C | 85% | 1019.6 hPa | 0 mm | 1.34 m/s, 237° | 0 W/m² | - |
| 1778040156 | 13.33° C | 84% | 1019.6 hPa | 0 mm | 1.34 m/s, 243° | 0 W/m² | - |
| 1778039555 | 13.89° C | 84% | 1019.5 hPa | 0 mm | 1.34 m/s, 218° | 0 W/m² | - |
| 1778038955 | 13.89° C | 84% | 1019.4 hPa | 0 mm | 2.68 m/s, 203° | 0 W/m² | - |
| 1778038350 | 13.89° C | 83% | 1019.3 hPa | 0 mm | 1.79 m/s, 213° | 0 W/m² | - |
| 1778037749 | 13.89° C | 83% | 1019.2 hPa | 0 mm | 2.68 m/s, 197° | 0 W/m² | - |
| 1778037149 | 13.89° C | 83% | 1019.3 hPa | 0 mm | 2.24 m/s, 233° | 0 W/m² | - |
| 1778036544 | 13.89° C | 82% | 1018.8 hPa | 0 mm | 2.24 m/s, 211° | 0 W/m² | - |
| 1778035943 | 13.89° C | 82% | 1018.7 hPa | 0 mm | 3.13 m/s, 210° | 1 W/m² | - |
| 1778035343 | 13.89° C | 81% | 1018.8 hPa | 0 mm | 2.24 m/s, 220° | 4 W/m² | - |
| 1778034742 | 13.89° C | 81% | 1018.8 hPa | 0 mm | 4.02 m/s, 241° | 8 W/m² | - |
| 1778034137 | 14.44° C | 81% | 1018.3 hPa | 0 mm | 3.13 m/s, 233° | 15 W/m² | - |
| 1778033537 | 14.44° C | 80% | 1018.3 hPa | 0 mm | 2.24 m/s, 190° | 20 W/m² | - |
| 1778032932 | 14.44° C | 80% | 1018.2 hPa | 0 mm | 2.24 m/s, 210° | 25 W/m² | - |
| 1778032332 | 15° C | 80% | 1018.2 hPa | 0 mm | 1.79 m/s, 190° | 28 W/m² | - |
| 1778031731 | 15° C | 79% | 1018.1 hPa | 0 mm | 2.24 m/s, 194° | 29 W/m² | - |
| 1778031126 | 15° C | 79% | 1018.3 hPa | 0 mm | 3.13 m/s, 218° | 36 W/m² | - |
* Rain latest hour (hover to see other rain measurements)
** Current wind speed in m/s (hover to see current wind gust speed)